Chillicothe, MO

7:41 PM CDT on July 20, 2017 (GMT -0500)
Chillicothe

Weather History for KCDJ - December, 2012

Change the Weather History Date:

Wednesday, December 12, 2012

  Actual Average (KIRK) Record (KIRK)
Temperature  
Mean Temperature 36 °F -  
Max Temperature 50 °F 38 °F 66 °F (2015)
Min Temperature 21 °F 22 °F -11 °F (1932)
Degree Days  
Heating Degree Days 30    
Moisture  
Dew Point 16 °F    
Average Humidity 49    
Maximum Humidity 85    
Minimum Humidity 22    
Precipitation  
Precipitation 0.00 in - - ()
Sea Level Pressure  
Sea Level Pressure 30.20 in    
Wind  
Wind Speed 6 mph (South)    
Max Wind Speed 17 mph    
Max Gust Speed 26 mph    
Averages and records for this station are not official NWS values.
T = Trace of Precipitation, MM = Missing Value Source: NWS Daily Summary

Daily Weather History Graph

Daily Weather History Graph

Search for Another Location

Airport or City:

Trip Planner

Search our weather history database for the weather conditions in past years. The results will help you decide how hot, cold, wet, or windy it might be!

Date:

Astronomy

Dec. 12, 2012 Rise Set
Actual Time 7:26 AM CST 4:49 PM CST
Civil Twilight 6:56 AM CST 5:20 PM CST
Nautical Twilight 6:22 AM CST 5:54 PM CST
Astronomical Twilight 5:49 AM CST 6:27 PM CST
Moon 6:31 AM CST (12/12) 4:27 PM CST (12/12)
Length of Visible Light 10h 24m
Length of Day
9h 23m
Waning Crescent, 1% of the Moon is Illuminated
Dec 12
Waning Crescent
Dec 13
New
Dec 19
First Quarter
Dec 28
Full
Jan 4
Last Quarter

Hourly Weather History & Observations

Time (CST) Temp. Windchill Dew Point Humidity Pressure Visibility Wind Dir Wind Speed Gust Speed Precip Events Conditions
12:52 AM 28.9 °F 23.9 °F 18.0 °F 64% 30.18 in - South 4.6 mph - N/A   Unknown
1:52 AM 28.0 °F 22.8 °F 19.0 °F 69% 30.19 in - South 4.6 mph - N/A   Unknown
2:52 AM 27.0 °F 23.0 °F 18.0 °F 69% 30.20 in - South 3.5 mph - N/A   Unknown
3:52 AM 28.0 °F 22.8 °F 18.0 °F 66% 30.19 in - South 4.6 mph - N/A   Unknown
4:52 AM 24.1 °F - 18.0 °F 77% 30.19 in - Calm Calm - N/A   Unknown
5:52 AM 21.9 °F - 17.1 °F 82% 30.22 in - Calm Calm - N/A   Unknown
6:52 AM 21.0 °F 16.2 °F 17.1 °F 85% 30.23 in - SSE 3.5 mph - N/A   Unknown
7:52 AM 23.0 °F - 17.1 °F 78% 30.24 in - Calm Calm - N/A   Unknown
8:52 AM 30.0 °F 26.5 °F 19.9 °F 66% 30.25 in - SSE 3.5 mph - N/A   Unknown
9:52 AM 36.0 °F 27.5 °F 21.0 °F 55% 30.27 in - South 12.7 mph - N/A   Unknown
10:52 AM 41.0 °F 35.2 °F 21.0 °F 45% 30.27 in - South 9.2 mph - N/A   Unknown
11:52 AM 46.0 °F 40.6 °F 18.0 °F 33% 30.23 in - SSW 11.5 mph 21.9 mph N/A   Unknown
12:52 PM 48.9 °F - 15.1 °F 26% 30.20 in - South 15.0 mph 21.9 mph N/A   Unknown
1:52 PM 50.0 °F - 12.0 °F 22% 30.17 in - SSW 17.3 mph 25.3 mph N/A   Unknown
2:52 PM 50.0 °F - 12.0 °F 22% 30.17 in - South 17.3 mph 23.0 mph N/A   Unknown
3:52 PM 48.9 °F - 12.0 °F 23% 30.18 in - South 16.1 mph 26.5 mph N/A   Unknown
4:52 PM 46.0 °F 41.0 °F 12.9 °F 26% 30.18 in - South 10.4 mph - N/A   Unknown
5:52 PM 42.1 °F 37.1 °F 12.9 °F 31% 30.18 in - South 8.1 mph - N/A   Unknown
6:52 PM 42.1 °F 36.6 °F 10.9 °F 28% 30.18 in - South 9.2 mph - N/A   Unknown
7:52 PM 39.0 °F 33.4 °F 12.9 °F 34% 30.18 in - South 8.1 mph - N/A   Unknown
8:52 PM 39.0 °F 33.4 °F 14.0 °F 36% 30.18 in - South 8.1 mph - N/A   Unknown
9:52 PM 37.0 °F 32.4 °F 15.1 °F 41% 30.20 in - South 5.8 mph - N/A   Unknown
10:52 PM 35.1 °F 31.0 °F 15.1 °F 44% 30.21 in - South 4.6 mph - N/A   Unknown
11:52 PM 36.0 °F 31.1 °F 17.1 °F 46% 30.21 in - SSE 5.8 mph - N/A   Unknown